TimeCST,TemperatureF,Dew PointF,Humidity,Sea Level PressureIn,VisibilityMPH,Wind Direction,Wind SpeedMPH,Gust SpeedMPH,PrecipitationIn,Events,Conditions,WindDirDegrees,DateUTC
12:54 AM,37.0,26.1,65,29.88,10.0,Variable,5.8,-,N/A,,Scattered Clouds,0,2013-11-19 06:54:00
1:54 AM,35.1,26.1,70,29.86,10.0,Variable,5.8,-,N/A,,Clear,0,2013-11-19 07:54:00
2:54 AM,30.9,25.0,79,29.85,10.0,SSE,9.2,-,N/A,,Clear,150,2013-11-19 08:54:00
3:54 AM,30.9,25.0,79,29.81,10.0,SSE,12.7,-,N/A,,Clear,150,2013-11-19 09:54:00
4:54 AM,28.9,24.1,82,29.79,10.0,SE,9.2,-,N/A,,Clear,130,2013-11-19 10:54:00
5:54 AM,30.9,26.1,82,29.78,10.0,SSE,6.9,-,N/A,,Mostly Cloudy,150,2013-11-19 11:54:00
6:54 AM,32.0,27.0,82,29.74,10.0,ESE,6.9,-,N/A,,Mostly Cloudy,120,2013-11-19 12:54:00
7:54 AM,32.0,27.0,82,29.71,10.0,ESE,8.1,-,N/A,,Partly Cloudy,110,2013-11-19 13:54:00
8:54 AM,32.0,27.0,82,29.69,10.0,ESE,5.8,-,N/A,,Clear,120,2013-11-19 14:54:00
9:54 AM,33.1,28.0,82,29.65,10.0,SE,11.5,-,N/A,,Clear,130,2013-11-19 15:54:00
10:54 AM,35.1,28.0,76,29.61,10.0,SE,8.1,-,N/A,,Clear,130,2013-11-19 16:54:00
11:54 AM,36.0,28.9,76,29.59,10.0,SSE,5.8,-,N/A,,Clear,150,2013-11-19 17:54:00
12:54 PM,37.9,30.0,73,29.54,10.0,SSE,13.8,-,N/A,,Clear,160,2013-11-19 18:54:00
1:54 PM,37.9,30.0,73,29.54,10.0,South,9.2,-,N/A,,Clear,190,2013-11-19 19:54:00
2:54 PM,39.0,30.9,73,29.52,10.0,South,10.4,-,N/A,,Clear,170,2013-11-19 20:54:00
3:54 PM,39.0,30.9,73,29.52,10.0,South,4.6,-,N/A,,Clear,170,2013-11-19 21:54:00
4:54 PM,36.0,30.0,79,29.55,10.0,Calm,Calm,-,N/A,,Clear,0,2013-11-19 22:54:00
5:54 PM,34.0,30.0,85,29.55,10.0,SW,3.5,-,N/A,,Clear,230,2013-11-19 23:54:00
6:54 PM,33.1,28.9,85,29.56,10.0,SW,5.8,-,N/A,,Clear,230,2013-11-20 00:54:00
7:54 PM,35.1,28.9,78,29.58,10.0,WNW,13.8,-,N/A,,Clear,290,2013-11-20 01:54:00
8:54 PM,30.9,26.1,82,29.62,10.0,NW,13.8,-,N/A,,Clear,310,2013-11-20 02:54:00
9:54 PM,25.0,19.0,78,29.64,10.0,NW,11.5,-,N/A,,Clear,310,2013-11-20 03:54:00
10:54 PM,24.1,18.0,77,29.69,10.0,WNW,19.6,26.5,N/A,,Overcast,300,2013-11-20 04:54:00
11:54 PM,23.0,16.0,74,29.75,10.0,NW,18.4,27.6,N/A,,Overcast,310,2013-11-20 05:54:00